Weather History for Liberal, KS

Change the Weather History Date:

Tuesday, March 5, 2013

  Actual Average Record
Temperature  
Mean Temperature 34 °F -  
Max Temperature 48 °F 54 °F 83 °F (1956)
Min Temperature 21 °F 27 °F -2 °F (1948)
Degree Days  
Heating Degree Days 30    
Moisture  
Dew Point 13 °F    
Average Humidity 44    
Maximum Humidity 75    
Minimum Humidity 23    
Precipitation  
Precipitation 0.00 in - - ()
Sea Level Pressure  
Sea Level Pressure 30.33 in    
Wind  
Wind Speed 13 mph (NNW)    
Max Wind Speed 22 mph    
Max Gust Speed 28 mph    
Visibility 10 miles    
Events      
Averages and records for this station are not official NWS values.
T = Trace of Precipitation, MM = Missing Value Source: NWS Daily Summary

Daily Weather History Graph

Daily Weather History Graph

Search for Another Location

Airport:

Trip Planner

Search our weather history database for the weather conditions in past years. The results will help you decide how hot, cold, wet, or windy it might be!

Date:

Astronomy

Mar. 05, 2013 Rise Set
Actual Time 7:08 AM CST 6:42 PM CST
Civil Twilight 6:42 AM CST 7:08 PM CST
Nautical Twilight 6:12 AM CST 7:38 PM CST
Astronomical Twilight 5:42 AM CST 8:08 PM CST
Moon 2:16 AM CST (3/5) 12:29 PM CST (3/5)
Length of Visible Light 12h 25m
Length of Day
11h 33m
Last Quarter, 40% of the Moon is Illuminated
Mar 5
Last Quarter
Mar 11
New
Mar 19
First Quarter
Mar 27
Full
Apr 2
Last Quarter

Hourly Weather History & Observations

Time (CST) Temp. Windchill Dew Point Humidity Pressure Visibility Wind Dir Wind Speed Gust Speed Precip Events Conditions
12:15 AM 33.8 °F 23.9 °F 26.6 °F 75% 30.20 in 10.0 mi NNW 15.0 mph - N/A   Partly Cloudy
1:35 AM 30.2 °F 19.8 °F 21.2 °F 69% 30.25 in 10.0 mi North 13.8 mph - N/A   Clear
1:55 AM 28.4 °F 18.5 °F 19.4 °F 69% 30.26 in 10.0 mi NNW 11.5 mph - N/A   Clear
2:15 AM 28.4 °F 17.5 °F 19.4 °F 69% 30.27 in 10.0 mi NNW 13.8 mph - N/A   Clear
2:35 AM 28.4 °F 17.0 °F 17.6 °F 64% 30.27 in 10.0 mi NNW 15.0 mph - N/A   Clear
2:55 AM 26.6 °F 15.2 °F 15.8 °F 64% 30.28 in 10.0 mi NNW 13.8 mph - N/A   Clear
3:15 AM 26.6 °F 14.7 °F 15.8 °F 64% 30.28 in 10.0 mi NNW 15.0 mph - N/A   Clear
3:35 AM 26.6 °F 14.3 °F 15.8 °F 64% 30.28 in 10.0 mi NNW 16.1 mph - N/A   Clear
3:55 AM 24.8 °F 12.4 °F 14.0 °F 64% 30.28 in 10.0 mi NNW 15.0 mph - N/A   Clear
4:15 AM 24.8 °F 13.4 °F 12.2 °F 59% 30.29 in 10.0 mi NW 12.7 mph - N/A   Clear
4:35 AM 24.8 °F 14.6 °F 12.2 °F 59% 30.29 in 10.0 mi NW 10.4 mph - N/A   Clear
4:55 AM 23.0 °F 12.4 °F 12.2 °F 63% 30.31 in 10.0 mi NW 10.4 mph - N/A   Clear
5:15 AM 23.0 °F 11.7 °F 12.2 °F 63% 30.31 in 10.0 mi NW 11.5 mph - N/A   Clear
5:35 AM 23.0 °F 12.4 °F 12.2 °F 63% 30.31 in 10.0 mi WNW 10.4 mph - N/A   Clear
5:55 AM 23.0 °F 13.1 °F 12.2 °F 63% 30.32 in 10.0 mi WNW 9.2 mph - N/A   Clear
6:15 AM 21.2 °F 9.5 °F 12.2 °F 68% 30.33 in 10.0 mi WNW 11.5 mph - N/A   Clear
6:35 AM 21.2 °F 8.9 °F 12.2 °F 68% 30.34 in 10.0 mi WNW 12.7 mph - N/A   Clear
7:35 AM 21.2 °F 9.5 °F 12.2 °F 68% 30.37 in 10.0 mi NW 11.5 mph - N/A   Clear
7:55 AM 24.8 °F 14.0 °F 12.2 °F 59% 30.38 in 10.0 mi NW 11.5 mph - N/A   Clear
8:15 AM 26.6 °F 15.2 °F 14.0 °F 59% 30.39 in 10.0 mi NW 13.8 mph - N/A   Clear
8:35 AM 28.4 °F 15.8 °F 14.0 °F 55% 30.40 in 10.0 mi NW 18.4 mph 23.0 mph N/A   Clear
8:55 AM 28.4 °F 15.1 °F 14.0 °F 55% 30.40 in 9.0 mi NNW 20.7 mph 26.5 mph N/A   Clear
9:15 AM 30.2 °F 17.4 °F 14.0 °F 51% 30.41 in 10.0 mi NNW 20.7 mph 26.5 mph N/A   Clear
9:35 AM 30.2 °F 17.8 °F 15.8 °F 55% 30.41 in 10.0 mi NNW 19.6 mph 25.3 mph N/A   Clear
9:55 AM 32.0 °F 19.8 °F 14.0 °F 48% 30.41 in 10.0 mi NNW 20.7 mph 25.3 mph N/A   Clear
10:15 AM 33.8 °F 21.9 °F 15.8 °F 48% 30.41 in 10.0 mi NNW 21.9 mph 26.5 mph N/A   Clear
10:35 AM 33.8 °F 22.5 °F 15.8 °F 48% 30.41 in 10.0 mi NNW 19.6 mph 27.6 mph N/A   Clear
10:55 AM 35.6 °F 24.8 °F 15.8 °F 44% 30.40 in 10.0 mi North 19.6 mph 24.2 mph N/A   Clear
11:15 AM 37.4 °F 26.9 °F 15.8 °F 41% 30.40 in 10.0 mi NNW 20.7 mph - N/A   Clear
11:35 AM 39.2 °F 29.6 °F 12.2 °F 33% 30.40 in 10.0 mi NNW 19.6 mph 25.3 mph N/A   Clear
11:55 AM 39.2 °F 30.2 °F 12.2 °F 33% 30.40 in 10.0 mi NNW 17.3 mph 23.0 mph N/A   Clear
12:15 PM 41.0 °F 32.8 °F 12.2 °F 31% 30.39 in 10.0 mi North 16.1 mph 21.9 mph N/A   Clear
12:35 PM 42.8 °F 34.5 °F 10.4 °F 27% 30.38 in 10.0 mi NNW 18.4 mph - N/A   Clear
12:55 PM 42.8 °F 36.2 °F 10.4 °F 27% 30.38 in 10.0 mi NNW 12.7 mph 21.9 mph N/A   Clear
1:15 PM 44.6 °F 38.4 °F 10.4 °F 25% 30.37 in 10.0 mi NW 12.7 mph 23.0 mph N/A   Clear
1:35 PM 44.6 °F 37.4 °F 10.4 °F 25% 30.36 in 10.0 mi NNW 16.1 mph 20.7 mph N/A   Clear
1:55 PM 44.6 °F 37.2 °F 12.2 °F 27% 30.35 in 10.0 mi NNW 17.3 mph 23.0 mph N/A   Clear
2:15 PM 46.4 °F 39.5 °F 12.2 °F 25% 30.34 in 10.0 mi North 17.3 mph - N/A   Clear
2:35 PM 46.4 °F 40.1 °F 14.0 °F 27% 30.34 in 10.0 mi NNW 15.0 mph 19.6 mph N/A   Clear
2:55 PM 46.4 °F 41.9 °F 14.0 °F 27% 30.33 in 10.0 mi North 9.2 mph 16.1 mph N/A   Clear
3:15 PM 48.2 °F - 12.2 °F 24% 30.33 in 10.0 mi NW 9.2 mph 18.4 mph N/A   Clear
3:35 PM 46.4 °F 41.9 °F 12.2 °F 25% 30.32 in 10.0 mi North 9.2 mph - N/A   Clear
3:55 PM 48.2 °F - 12.2 °F 24% 30.32 in 10.0 mi North 12.7 mph - N/A   Clear
4:15 PM 46.4 °F 42.4 °F 12.2 °F 25% 30.32 in 10.0 mi North 8.1 mph - N/A   Clear
4:35 PM 48.2 °F - 12.2 °F 24% 30.32 in 10.0 mi North 10.4 mph - N/A   Clear
4:55 PM 46.4 °F 43.5 °F 12.2 °F 25% 30.32 in 10.0 mi North 5.8 mph - N/A   Clear
5:15 PM 46.4 °F 44.3 °F 10.4 °F 23% 30.32 in 10.0 mi NNW 4.6 mph - N/A   Clear
5:35 PM 46.4 °F 42.4 °F 12.2 °F 25% 30.32 in 10.0 mi North 8.1 mph - N/A   Clear
5:55 PM 46.4 °F 42.9 °F 12.2 °F 25% 30.32 in 10.0 mi North 6.9 mph - N/A   Clear
6:15 PM 44.6 °F - 12.2 °F 27% 30.32 in 10.0 mi Calm Calm - N/A   Clear
6:35 PM 44.6 °F - 10.4 °F 25% 30.32 in 10.0 mi Calm Calm - N/A   Clear
6:55 PM 44.6 °F - 10.4 °F 25% 30.32 in 10.0 mi Calm Calm - N/A   Clear
7:15 PM 39.2 °F - 10.4 °F 31% 30.33 in 10.0 mi Calm Calm - N/A   Clear
7:35 PM 37.4 °F - 10.4 °F 33% 30.33 in 10.0 mi Calm Calm - N/A   Clear
7:55 PM 37.4 °F - 12.2 °F 36% 30.33 in 10.0 mi Calm Calm - N/A   Clear
8:15 PM 33.8 °F 28.6 °F 12.2 °F 41% 30.33 in 10.0 mi South 5.8 mph - N/A   Clear
8:35 PM 35.6 °F 30.7 °F 12.2 °F 38% 30.32 in 10.0 mi SSE 5.8 mph - N/A   Clear
8:55 PM 33.8 °F 28.6 °F 14.0 °F 44% 30.32 in 10.0 mi SE 5.8 mph - N/A   Clear
9:15 PM 35.6 °F 29.9 °F 12.2 °F 38% 30.32 in 10.0 mi SE 6.9 mph - N/A   Clear
9:35 PM 33.8 °F 29.6 °F 12.2 °F 41% 30.33 in 10.0 mi ESE 4.6 mph - N/A   Clear
9:55 PM 35.6 °F 29.9 °F 14.0 °F 41% 30.33 in 10.0 mi ESE 6.9 mph - N/A   Clear
10:15 PM 33.8 °F 27.0 °F 12.2 °F 41% 30.33 in 10.0 mi SE 8.1 mph - N/A   Clear
10:35 PM 32.0 °F 25.6 °F 12.2 °F 44% 30.33 in 10.0 mi SE 6.9 mph - N/A   Clear
10:55 PM 30.2 °F 21.9 °F 12.2 °F 47% 30.33 in 10.0 mi SE 9.2 mph - N/A   Clear
11:15 PM 33.8 °F 26.4 °F 14.0 °F 44% 30.32 in 10.0 mi SE 9.2 mph - N/A   Clear
11:35 PM 32.0 °F 23.6 °F 14.0 °F 48% 30.32 in 10.0 mi SE 10.4 mph - N/A   Clear
11:55 PM 30.2 °F 21.3 °F 14.0 °F 51% 30.32 in 10.0 mi SE 10.4 mph - N/A   Clear